Location: Newark
(13.6797°N, 8.5297°E)
Time: 02:02:08
(UTC+00:00)

Altair - Pass Details

Date: 29 January 2020
Orbit: 1502 x 1682 km, 47.2° (Epoch: 19 February)

Event Time Altitude Azimuth Distance (km) Brightness Sun altitude
Rises 14:31:52 0° 320° (NW) 4,908 10.2 36.9°
Reaches altitude 10° 14:35:04 10° 322° (NW) 3,905 9.8 36.3°
Maximum altitude 14:45:04 76° 48° (NE) 1,662 8.1 34.3°
Drops below altitude 10° 14:54:41 10° 133° (SE) 3,767 9.5 32.3°
Sets 14:57:42 0° 134° (SE) 4,728 9.9 31.7°
